GW1914 Weather Reports


time (UTC)temp
C
wind
direction
speed
KPH
gust
KPH
rain 1hr
cm
rain 24hr
cm
rain mn
cm
humidity
%
barometer
mb
20260505040032 16 259 1.6 8.0 0.00 0.00 0.00 59 1011.0
20260505035517 17 243 3.2 8.0 0.00 0.00 0.00 54 1010.9
20260505035028 17 253 3.2 6.4 0.00 0.00 0.00 52 1010.8
20260505034522 18 233 1.6 4.8 0.00 0.00 0.00 48 1010.7
20260505034020 20 52 0.0 3.2 0.00 0.00 0.00 35 1010.6
20260505033531 20 50 1.6 3.2 0.00 0.00 0.00 35 1010.5
20260505033033 20 32 1.6 3.2 0.00 0.00 0.00 34 1010.4
20260505032533 21 41 1.6 4.8 0.00 0.00 0.00 34 1010.3
20260505032024 21 48 3.2 8.0 0.00 0.00 0.00 33 1010.3
20260505031539 21 51 4.8 8.0 0.00 0.00 0.00 33 1010.3
20260505031025 21 48 3.2 8.0 0.00 0.00 0.00 33 1010.3
20260505030536 21 20 3.2 6.4 0.00 0.00 0.00 32 1010.3
20260505030030 21 60 3.2 12.9 0.00 0.00 0.00 32 1010.4
20260505025525 21 38 6.4 16.1 0.00 0.00 0.00 31 1010.2
20260505025028 22 5 6.4 16.1 0.00 0.00 0.00 31 1010.2
20260505024549 22 360 4.8 14.5 0.00 0.00 0.00 31 1010.0
20260505024034 22 22 4.8 17.7 0.00 0.00 0.00 31 1010.0
20260505023530 22 5 8.0 14.5 0.00 0.00 0.00 30 1009.9
20260505023036 22 15 8.0 17.7 0.00 0.00 0.00 30 1010.0
20260505022538 22 11 9.7 19.3 0.00 0.00 0.00 30 1010.0
20260505022027 22 21 12.9 19.3 0.00 0.00 0.00 29 1010.0
20260505021542 22 342 8.0 16.1 0.00 0.00 0.00 30 1010.1
20260505021030 22 299 8.0 17.7 0.00 0.00 0.00 29 1010.1
20260505020521 22 351 9.7 17.7 0.00 0.00 0.00 28 1010.0
20260505020044 22 24 8.0 17.7 0.00 0.00 0.00 28 1010.1
20260505015530 22 5 9.7 17.7 0.00 0.00 0.00 28 1010.1
20260505015036 23 344 6.4 17.7 0.00 0.00 0.00 27 1010.1
20260505014535 23 355 8.0 19.3 0.00 0.00 0.00 26 1010.1
20260505014026 23 13 9.7 19.3 0.00 0.00 0.00 26 1010.1
20260505013535 23 5 9.7 17.7 0.00 0.00 0.00 26 1010.1
20260505013029 23 10 6.4 19.3 0.00 0.00 0.00 26 1010.1
20260505012525 23 9 11.3 20.9 0.00 0.00 0.00 26 1010.1
20260505012032 23 5 12.9 24.1 0.00 0.00 0.00 26 1010.1
20260505011535 23 19 14.5 25.7 0.00 0.00 0.00 26 1010.1
20260505011019 23 13 14.5 25.7 0.00 0.00 0.00 25 1010.1
20260505010532 23 360 8.0 22.5 0.00 0.00 0.00 26 1010.0
20260505010026 23 355 6.4 24.1 0.00 0.00 0.00 27 1010.0
20260505005534 23 18 11.3 24.1 0.00 0.00 0.00 26 1010.1
20260505005024 23 28 11.3 24.1 0.00 0.00 0.00 27 1010.1
20260505004534 23 5 12.9 24.1 0.00 0.00 0.00 25 1010.1
20260505004031 23 11 12.9 27.4 0.00 0.00 0.00 26 1010.1
20260505003520 23 9 14.5 27.4 0.00 0.00 0.00 27 1010.2
20260505003038 23 22 11.3 25.7 0.00 0.00 0.00 28 1010.3
20260505002526 23 360 14.5 25.7 0.00 0.00 0.00 26 1010.2
20260505002019 23 12 14.5 24.1 0.00 0.00 0.00 25 1010.2
20260505001533 23 22 9.7 22.5 0.00 0.00 0.00 28 1010.3
20260505001031 23 9 16.1 22.5 0.00 0.00 0.00 26 1010.2
20260505000534 23 32 9.7 22.5 0.00 0.00 0.00 25 1010.3
20260505000032 23 27 11.3 27.4 0.00 0.00 0.00 26 1010.4
20260504235520 23 309 16.1 27.4 0.00 0.00 0.00 26 1010.3
20260504235030 23 355 14.5 24.1 0.00 0.00 0.00 26 1010.3
20260504234527 23 313 12.9 24.1 0.00 0.00 0.00 27 1010.4
20260504234040 23 31 9.7 29.0 0.00 0.00 0.00 26 1010.4
20260504233525 24 42 17.7 29.0 0.00 0.00 0.00 26 1010.4
20260504233022 24 13 14.5 24.1 0.00 0.00 0.00 27 1010.4
20260504232534 24 5 9.7 25.7 0.00 0.00 0.00 26 1010.4
20260504232021 25 360 16.1 22.5 0.00 0.00 0.00 27 1010.4
20260504231518 24 360 6.4 20.9 0.00 0.00 0.00 28 1010.4
20260504231026 24 355 12.9 20.9 0.00 0.00 0.00 27 1010.3
20260504230519 24 19 11.3 30.6 0.00 0.00 0.00 28 1010.3
20260504230036 23 22 12.9 30.6 0.00 0.00 0.00 27 1010.4
20260504225529 23 329 4.8 30.6 0.00 0.00 0.00 29 1010.5
20260504225034 23 5 17.7 30.6 0.00 0.00 0.00 28 1010.6
20260504224531 24 343 16.1 27.4 0.00 0.00 0.00 27 1010.5
20260504224022 24 292 12.9 27.4 0.00 0.00 0.00 27 1010.4
20260504223530 24 327 14.5 27.4 0.00 0.00 0.00 26 1010.5
20260504223034 24 324 12.9 27.4 0.00 0.00 0.00 26 1010.5
20260504222536 24 360 19.3 25.7 0.00 0.00 0.00 25 1010.5
20260504222025 24 310 11.3 22.5 0.00 0.00 0.00 26 1010.4
20260504221520 24 320 9.7 19.3 0.00 0.00 0.00 26 1010.4
20260504221031 24 14 12.9 19.3 0.00 0.00 0.00 25 1010.4
20260504220524 24 331 9.7 19.3 0.00 0.00 0.00 26 1010.4
20260504220047 24 287 8.0 20.9 0.00 0.00 0.00 27 1010.4
20260504215526 24 351 9.7 20.9 0.00 0.00 0.00 28 1010.4
20260504215036 23 35 9.7 24.1 0.00 0.00 0.00 28 1010.6
20260504214530 23 360 12.9 25.7 0.00 0.00 0.00 30 1010.6
20260504214022 23 355 9.7 25.7 0.00 0.00 0.00 31 1010.7
20260504213530 23 5 12.9 29.0 0.00 0.00 0.00 30 1010.7
20260504213029 23 332 17.7 30.6 0.00 0.00 0.00 30 1010.7
20260504212537 23 343 17.7 30.6 0.00 0.00 0.00 29 1010.7
20260504212027 23 333 12.9 24.1 0.00 0.00 0.00 31 1010.6
20260504211523 23 16 14.5 24.1 0.00 0.00 0.00 30 1010.7
20260504211031 23 336 12.9 24.1 0.00 0.00 0.00 30 1010.7
20260504210524 23 5 9.7 20.9 0.00 0.00 0.00 31 1010.7
20260504210020 23 360 12.9 25.7 0.00 0.00 0.00 31 1010.6
20260504205529 23 355 12.9 22.5 0.00 0.00 0.00 32 1010.8
20260504205020 23 5 9.7 19.3 0.00 0.00 0.00 32 1010.7
20260504204522 23 336 11.3 22.5 0.00 0.00 0.00 32 1010.8
20260504204028 23 346 12.9 22.5 0.00 0.00 0.00 31 1010.7
20260504203540 23 5 11.3 20.9 0.00 0.00 0.00 32 1010.7
20260504203034 23 338 4.8 20.9 0.00 0.00 0.00 32 1010.8
20260504202522 23 321 6.4 20.9 0.00 0.00 0.00 34 1010.8
20260504202035 23 338 11.3 20.9 0.00 0.00 0.00 33 1010.8
20260504201532 23 63 6.4 19.3 0.00 0.00 0.00 34 1010.7
20260504201018 23 320 11.3 19.3 0.00 0.00 0.00 34 1010.7
20260504200528 23 294 9.7 17.7 0.00 0.00 0.00 34 1010.8
20260504200024 23 346 9.7 17.7 0.00 0.00 0.00 34 1010.8
20260504195531 23 284 9.7 19.3 0.00 0.00 0.00 34 1010.9
20260504195022 23 304 11.3 19.3 0.00 0.00 0.00 35 1010.9
20260504194520 22 345 9.7 19.3 0.00 0.00 0.00 35 1010.9
20260504194028 22 5 3.2 16.1 0.00 0.00 0.00 36 1011.0
20260504193522 22 20 8.0 16.1 0.00 0.00 0.00 36 1011.0
20260504193018 22 271 3.2 14.5 0.00 0.00 0.00 36 1011.0
20260504192530 22 355 6.4 17.7 0.00 0.00 0.00 35 1011.1
20260504192020 22 340 9.7 19.3 0.00 0.00 0.00 35 1011.1
20260504191540 22 10 11.3 19.3 0.00 0.00 0.00 36 1011.2
20260504191026 22 300 9.7 19.3 0.00 0.00 0.00 37 1011.2
20260504190535 22 315 12.9 17.7 0.00 0.00 0.00 36 1011.2
20260504190036 22 336 9.7 22.5 0.00 0.00 0.00 38 1011.2
20260504185518 22 338 12.9 22.5 0.00 0.00 0.00 37 1011.3
20260504185029 22 328 11.3 19.3 0.00 0.00 0.00 37 1011.3
20260504184533 21 311 8.0 16.1 0.00 0.00 0.00 37 1011.3
20260504184032 21 342 6.4 19.3 0.00 0.00 0.00 37 1011.3
20260504183524 21 355 9.7 19.3 0.00 0.00 0.00 37 1011.3
20260504183019 22 355 6.4 14.5 0.00 0.00 0.00 38 1011.4
20260504182538 21 355 6.4 14.5 0.00 0.00 0.00 38 1011.4
20260504182022 21 315 6.4 14.5 0.00 0.00 0.00 39 1011.5
20260504181522 21 285 6.4 12.9 0.00 0.00 0.00 39 1011.4
20260504181033 21 339 6.4 12.9 0.00 0.00 0.00 39 1011.4
20260504180542 21 298 1.6 16.1 0.00 0.00 0.00 40 1011.4
20260504180032 21 345 8.0 16.1 0.00 0.00 0.00 41 1011.4
20260504175522 21 315 4.8 14.5 0.00 0.00 0.00 40 1011.3
20260504175031 21 340 4.8 12.9 0.00 0.00 0.00 41 1011.5
20260504174526 21 11 3.2 16.1 0.00 0.00 0.00 43 1011.4
20260504174038 20 332 4.8 16.1 0.00 0.00 0.00 42 1011.5
20260504173526 20 339 4.8 8.0 0.00 0.00 0.00 45 1011.6
20260504173022 18 324 1.6 8.0 0.00 0.00 0.00 53 1011.8
20260504172533 17 320 1.6 4.8 0.00 0.00 0.00 53 1011.8
20260504172027 17 159 1.6 6.4 0.00 0.00 0.00 59 1011.8
20260504171523 17 171 3.2 4.8 0.00 0.00 0.00 59 1011.8
20260504171034 18 180 1.6 4.8 0.00 0.00 0.00 54 1011.7
20260504170522 16 328 0.0 4.8 0.00 0.00 0.00 60 1011.8
20260504151021 11 169 0.0 1.6 0.00 0.00 0.00 82 1012.2
20260504150533 11 197 0.0 0.0 0.00 0.00 0.00 83 1012.1
20260504141021 10 246 0.0 4.8 0.00 0.00 0.00 87 1011.9
20260504140528 9 248 1.6 4.8 0.00 0.00 0.00 88 1011.9
20260504130530 9 250 0.0 0.0 0.00 0.00 0.00 89 1011.5
20260504110539 9 239 3.2 6.4 0.00 0.00 0.00 89 1011.2
20260504100523 9 249 1.6 4.8 0.00 0.00 0.00 87 1011.2
20260504081544 11 211 3.2 8.0 0.00 0.00 0.00 81 1010.9
20260504081024 12 207 4.8 8.0 0.00 0.00 0.00 82 1010.8
20260504080531 11 198 4.8 8.0 0.00 0.00 0.00 82 1010.9
20260504050523 14 231 3.2 6.4 0.00 0.00 0.00 69 1011.3
20260504045524 13 269 1.6 6.4 0.00 0.00 0.00 71 1011.3
20260504045035 14 239 3.2 6.4 0.00 0.00 0.00 70 1011.3
20260504044529 14 244 1.6 4.8 0.00 0.00 0.00 68 1011.4
20260504044040 15 242 1.6 6.4 0.00 0.00 0.00 67 1011.3
20260504043527 15 244 3.2 6.4 0.00 0.00 0.00 67 1011.4
20260504043035 16 98 1.6 9.7 0.00 0.00 0.00 66 1011.4
20260504042535 16 78 1.6 11.3 0.00 0.00 0.00 64 1011.2
20260504042023 16 188 6.4 11.3 0.00 0.00 0.00 62 1011.3
20260504041521 16 254 3.2 8.0 0.00 0.00 0.00 59 1011.3
20260504041032 16 175 1.6 11.3 0.00 0.00 0.00 62 1011.3
20260504040521 16 143 4.8 11.3 0.00 0.00 0.00 58 1011.4